Location: Newark
(49.3000°N, 9.4667°E)
Time: 00:45:33
(UTC+00:00)

Tiros 1 - All Passes

Search period start: 24 May 2019 00:00
Search period end: 03 June 2019 00:00
Orbit: 630 x 664 km, 48.4° (Epoch: 23 May)

Date Brightness Start Highest point End Pass type
(mag) Time Alt. Az. Time Alt. Az. Time Alt. Az.
24 May - 08:59:56 10° S 09:03:11 19° SE 09:06:28 10° E daylight
24 May - 10:40:11 10° SW 10:44:43 54° SSE 10:49:19 10° E daylight
24 May - 12:22:05 10° W 12:26:47 82° S 12:31:33 10° E daylight
24 May - 14:04:16 10° W 14:08:53 57° SSW 14:13:33 10° ESE daylight
24 May - 15:46:57 10° W 15:50:29 21° SW 15:54:03 10° S daylight
25 May - 09:24:44 10° SSW 09:28:53 33° SSE 09:33:05 10° E daylight
25 May - 11:06:04 10° WSW 11:10:44 73° SSE 11:15:26 10° E daylight
25 May - 12:48:11 10° W 12:52:53 76° S 12:57:37 10° ESE daylight
25 May - 14:30:27 10° W 14:34:48 37° SSW 14:39:11 10° SE daylight
25 May - 16:14:57 10° WSW 16:16:03 11° SW 16:17:08 10° SSW daylight
26 May - 08:10:11 10° S 08:13:16 18° SE 08:16:22 10° E daylight
26 May - 09:50:15 10° SW 09:54:45 52° SSE 09:59:19 10° E daylight
26 May - 11:32:07 10° W 11:36:48 82° S 11:41:33 10° E daylight
26 May - 13:14:17 10° W 13:18:55 59° SSW 13:23:35 10° ESE daylight
26 May - 14:56:54 10° W 15:00:33 22° SW 15:04:12 10° SSE daylight
27 May - 08:34:52 10° SSW 08:38:56 31° SSE 08:43:03 10° E daylight
27 May - 10:16:06 10° WSW 10:20:45 71° SSE 10:25:26 10° E daylight
27 May - 11:58:13 10° W 12:02:54 77° S 12:07:37 10° ESE daylight
27 May - 13:40:27 10° W 13:44:50 39° SSW 13:49:15 10° SE daylight
27 May - 15:24:31 10° WSW 15:26:07 12° SW 15:27:44 10° SSW daylight
28 May - 07:20:26 10° S 07:23:20 17° SE 07:26:15 10° E daylight
28 May - 09:00:19 10° SW 09:04:47 49° SSE 09:09:19 10° E daylight
28 May - 10:42:09 10° W 10:46:49 81° S 10:51:33 10° E daylight
28 May - 12:24:19 10° W 12:28:56 61° SSW 12:33:36 10° ESE daylight
28 May - 14:06:52 10° W 14:10:36 23° SW 14:14:21 10° SSE daylight
29 May - 07:45:00 10° SSW 07:49:00 29° SSE 07:53:02 10° E daylight
29 May - 09:26:09 10° WSW 09:30:46 69° SSE 09:35:26 10° E daylight
29 May - 11:08:15 10° W 11:12:55 78° S 11:17:38 10° ESE daylight
29 May - 12:50:28 10° W 12:54:52 41° SSW 12:59:18 10° SE daylight
29 May - 14:34:14 10° WSW 14:36:12 12° SW 14:38:10 10° SSW daylight
30 May - 06:30:44 10° S 06:33:25 15° SE 06:36:07 10° ESE daylight
30 May - 08:10:23 10° SW 08:14:50 47° SSE 08:19:19 10° E daylight
30 May - 09:52:11 10° W 09:56:50 81° S 10:01:33 10° E daylight
30 May - 11:34:21 10° W 11:38:58 63° SSW 11:43:38 10° ESE daylight
30 May - 13:16:50 10° W 13:20:39 25° SW 13:24:29 10° SSE daylight
31 May - 06:55:09 10° SSW 06:59:03 28° SSE 07:03:00 10° E daylight
31 May - 08:36:12 10° WSW 08:40:48 67° SSE 08:45:26 10° E daylight
31 May - 10:18:16 10° W 10:22:56 79° S 10:27:38 10° E daylight
31 May - 12:00:29 10° W 12:04:55 43° SSW 12:09:22 10° SE daylight
31 May - 13:44:01 10° WSW 13:46:16 13° SW 13:48:31 10° SSW daylight
01 Jun - 05:41:02 10° S 05:43:30 14° SE 05:45:58 10° ESE daylight
01 Jun - 07:20:28 10° SW 07:24:52 45° SSE 07:29:19 10° E daylight
01 Jun - 09:02:12 10° W 09:06:51 80° S 09:11:33 10° E daylight
01 Jun - 10:44:22 10° W 10:48:59 65° SSW 10:53:39 10° ESE daylight
01 Jun - 12:26:50 10° W 12:30:42 26° SW 12:34:37 10° SSE daylight
02 Jun - 06:05:17 10° SSW 06:09:07 26° SE 06:12:58 10° E daylight
02 Jun - 07:46:14 10° WSW 07:50:49 65° SSE 07:55:27 10° E daylight
02 Jun - 09:28:18 10° W 09:32:57 80° S 09:37:38 10° E daylight
02 Jun - 11:10:30 10° W 11:14:57 45° SSW 11:19:25 10° SE daylight
02 Jun - 12:53:51 10° WSW 12:56:20 14° SW 12:58:50 10° S daylight
